DSM1407 SUMU-SABE

Flight info

Callsign DSM1407
Flight time 0h 39m
Altitude 24000
Route DAGUS DCT UGIMI UGIMI8Q
Aircraft A320/M-SDE3FGHIRWY/LB1

Departure

Time 2026-04-21 14:46
Airport Carrasco General Cesáreo L. Berisso International Airport (SUMU)

Arrival

Time 2026-04-21 15:25
Airport Aeroparque Jorge Newbery (SABE)
Time Latitude Longitude Altitude Speed Heading
2026-04-21 14:28 -34.83724 -56.01983 72 ft 0 kts 143°
2026-04-21 14:36 -34.83718 -56.01987 73 ft 2 kts 143°
2026-04-21 14:36 -34.83707 -56.01998 73 ft 2 kts 143°
2026-04-21 14:37 -34.83695 -56.02009 74 ft 2 kts 143°
2026-04-21 14:37 -34.83687 -56.02016 74 ft 2 kts 143°
2026-04-21 14:37 -34.83667 -56.02028 75 ft 2 kts 184°
2026-04-21 14:37 -34.83655 -56.02024 75 ft 2 kts 212°
2026-04-21 14:38 -34.83647 -56.02016 75 ft 1 kts 235°
2026-04-21 14:38 -34.83644 -56.02011 75 ft 0 kts 234°
2026-04-21 14:38 -34.83644 -56.02010 75 ft 0 kts 234°
2026-04-21 14:38 -34.83644 -56.02011 75 ft 0 kts 234°
2026-04-21 14:39 -34.83655 -56.02030 75 ft 5 kts 234°
2026-04-21 14:40 -34.83686 -56.02082 74 ft 9 kts 234°
2026-04-21 14:40 -34.83731 -56.02155 72 ft 11 kts 233°
2026-04-21 14:40 -34.83761 -56.02203 71 ft 8 kts 232°
2026-04-21 14:40 -34.83815 -56.02238 69 ft 11 kts 182°
2026-04-21 14:41 -34.83884 -56.02244 66 ft 14 kts 184°
2026-04-21 14:41 -34.83921 -56.02248 65 ft 5 kts 193°
2026-04-21 14:41 -34.83943 -56.02275 64 ft 8 kts 244°
2026-04-21 14:41 -34.83949 -56.02356 64 ft 10 kts 273°
2026-04-21 14:42 -34.83948 -56.02449 64 ft 11 kts 271°
2026-04-21 14:42 -34.83946 -56.02552 64 ft 12 kts 271°
2026-04-21 14:42 -34.83951 -56.02661 64 ft 12 kts 255°
2026-04-21 14:42 -34.83997 -56.02758 62 ft 7 kts 235°
2026-04-21 14:43 -34.84009 -56.02826 61 ft 9 kts 269°
2026-04-21 14:43 -34.84010 -56.02908 61 ft 10 kts 269°
2026-04-21 14:43 -34.84011 -56.03003 61 ft 12 kts 269°
2026-04-21 14:43 -34.84030 -56.03116 58 ft 15 kts 246°
2026-04-21 14:44 -34.84084 -56.03239 57 ft 17 kts 242°
2026-04-21 14:44 -34.84141 -56.03367 52 ft 14 kts 241°
2026-04-21 14:44 -34.84192 -56.03481 52 ft 16 kts 241°
2026-04-21 14:44 -34.84245 -56.03610 48 ft 15 kts 250°
2026-04-21 14:45 -34.84199 -56.03680 48 ft 9 kts 11°
2026-04-21 14:45 -34.84184 -56.03656 49 ft 5 kts 74°
2026-04-21 14:45 -34.84161 -56.03613 50 ft 12 kts 53°
2026-04-21 14:45 -34.83947 -56.03263 60 ft 91 kts 53°
2026-04-21 14:46 -34.83434 -56.02418 120 ft 151 kts 54°
2026-04-21 14:46 -34.82864 -56.01463 691 ft 156 kts 53°
2026-04-21 14:46 -34.82299 -56.00544 1503 ft 152 kts 52°
2026-04-21 14:46 -34.81786 -55.99544 2212 ft 152 kts 66°
2026-04-21 14:47 -34.81760 -55.98320 2575 ft 175 kts 98°
2026-04-21 14:47 -34.82351 -55.97057 2953 ft 200 kts 131°
2026-04-21 14:47 -34.83638 -55.96284 3387 ft 222 kts 173°
2026-04-21 14:47 -34.85206 -55.96745 3780 ft 241 kts 217°
2026-04-21 14:48 -34.86267 -55.98320 4238 ft 252 kts 253°
2026-04-21 14:48 -34.86441 -56.00504 4733 ft 263 kts 284°
2026-04-21 14:48 -34.86095 -56.02722 5410 ft 275 kts 274°
2026-04-21 14:48 -34.86602 -56.04903 6247 ft 286 kts 237°
2026-04-21 14:49 -34.88012 -56.06425 7170 ft 290 kts 210°
2026-04-21 14:49 -34.89820 -56.07101 8022 ft 294 kts 186°
2026-04-21 14:49 -34.91853 -56.07100 8820 ft 297 kts 182°
2026-04-21 14:49 -34.93892 -56.07381 9563 ft 299 kts 194°
2026-04-21 14:50 -34.95193 -56.07802 10052 ft 300 kts 200°
2026-04-21 14:50 -34.97744 -56.08977 10788 ft 311 kts 206°
2026-04-21 14:50 -34.99702 -56.10038 11104 ft 327 kts 208°
2026-04-21 14:50 -35.01646 -56.11580 11386 ft 339 kts 227°
2026-04-21 14:51 -35.02989 -56.13903 11671 ft 347 kts 249°
2026-04-21 14:51 -35.03543 -56.16788 12029 ft 354 kts 270°
2026-04-21 14:51 -35.03363 -56.19754 12655 ft 355 kts 277°
2026-04-21 14:51 -35.03126 -56.22697 13336 ft 356 kts 276°
2026-04-21 14:52 -35.02972 -56.24701 13800 ft 356 kts 276°
2026-04-21 14:52 -35.02687 -56.28540 14649 ft 358 kts 276°
2026-04-21 14:52 -35.02480 -56.31396 15212 ft 360 kts 276°
2026-04-21 14:52 -35.02279 -56.34169 15746 ft 363 kts 276°
2026-04-21 14:53 -35.02072 -56.37036 16281 ft 365 kts 276°
2026-04-21 14:53 -35.01860 -56.39960 16814 ft 368 kts 276°
2026-04-21 14:53 -35.01648 -56.42899 17366 ft 369 kts 276°
2026-04-21 14:53 -35.01432 -56.45887 17873 ft 372 kts 276°
2026-04-21 14:54 -35.01215 -56.48873 18366 ft 374 kts 276°
2026-04-21 14:54 -35.00991 -56.51971 18895 ft 375 kts 276°
2026-04-21 14:54 -35.00764 -56.55063 19432 ft 376 kts 276°
2026-04-21 14:54 -35.00529 -56.58259 19961 ft 377 kts 276°
2026-04-21 14:55 -35.00374 -56.60364 20302 ft 378 kts 276°
2026-04-21 14:55 -35.00058 -56.64655 20956 ft 380 kts 276°
2026-04-21 14:55 -34.99819 -56.67892 21460 ft 381 kts 277°
2026-04-21 14:55 -34.99578 -56.71135 21947 ft 383 kts 277°
2026-04-21 14:56 -34.99334 -56.74399 22402 ft 384 kts 277°
2026-04-21 14:56 -34.99093 -56.77624 22860 ft 385 kts 277°
2026-04-21 14:56 -34.98849 -56.80868 23110 ft 380 kts 277°
2026-04-21 14:56 -34.98606 -56.84097 22710 ft 377 kts 277°
2026-04-21 14:57 -34.98386 -56.87269 21964 ft 379 kts 276°
2026-04-21 14:57 -34.98286 -56.90443 21274 ft 380 kts 273°
2026-04-21 14:57 -34.98270 -56.93669 20715 ft 381 kts 272°
2026-04-21 14:57 -34.98258 -56.96889 20616 ft 385 kts 272°
2026-04-21 14:58 -34.98245 -57.00180 21096 ft 386 kts 272°
2026-04-21 14:58 -34.98234 -57.03445 21672 ft 385 kts 272°
2026-04-21 14:58 -34.98230 -57.04516 21841 ft 385 kts 272°
2026-04-21 14:58 -34.98213 -57.08863 22482 ft 386 kts 272°
2026-04-21 14:59 -34.98198 -57.12191 22940 ft 388 kts 272°
2026-04-21 14:59 -34.98178 -57.16588 23512 ft 389 kts 273°
2026-04-21 14:59 -34.98173 -57.17675 23653 ft 390 kts 273°
2026-04-21 14:59 -34.98148 -57.22071 24018 ft 391 kts 273°
2026-04-21 15:00 -34.98124 -57.26374 24020 ft 391 kts 273°
2026-04-21 15:00 -34.98104 -57.29594 24025 ft 390 kts 272°
2026-04-21 15:00 -34.98085 -57.32758 24025 ft 391 kts 272°
2026-04-21 15:00 -34.98065 -57.35776 24023 ft 390 kts 272°
2026-04-21 15:01 -34.98051 -57.37792 24024 ft 390 kts 272°
2026-04-21 15:01 -34.98024 -57.41813 24028 ft 390 kts 272°
2026-04-21 15:01 -34.98009 -57.43802 24025 ft 390 kts 273°
2026-04-21 15:01 -34.97987 -57.46810 24024 ft 390 kts 272°
2026-04-21 15:02 -34.97957 -57.50861 24027 ft 391 kts 272°
2026-04-21 15:02 -34.97932 -57.53902 24022 ft 390 kts 272°
2026-04-21 15:02 -34.97908 -57.56926 24025 ft 390 kts 272°
2026-04-21 15:02 -34.97882 -57.59914 24030 ft 389 kts 272°
2026-04-21 15:03 -34.97855 -57.62884 24034 ft 389 kts 272°
2026-04-21 15:03 -34.97828 -57.65910 24036 ft 390 kts 273°
2026-04-21 15:03 -34.97800 -57.68898 23941 ft 390 kts 273°
2026-04-21 15:03 -34.97774 -57.71841 23716 ft 387 kts 273°
2026-04-21 15:04 -34.97745 -57.74766 23489 ft 386 kts 273°
2026-04-21 15:04 -34.97716 -57.77660 23270 ft 384 kts 273°
2026-04-21 15:04 -34.97685 -57.80597 23046 ft 383 kts 273°
2026-04-21 15:04 -34.97655 -57.83482 22823 ft 382 kts 273°
2026-04-21 15:05 -34.97577 -57.86368 22601 ft 381 kts 276°
2026-04-21 15:05 -34.96932 -57.92162 22141 ft 377 kts 283°
2026-04-21 15:05 -34.96361 -57.95004 21915 ft 376 kts 286°
2026-04-21 15:06 -34.95941 -57.96823 21769 ft 375 kts 287°
2026-04-21 15:06 -34.94985 -58.00876 21439 ft 374 kts 287°
2026-04-21 15:06 -34.94273 -58.03865 21192 ft 373 kts 287°
2026-04-21 15:06 -34.93610 -58.06662 20961 ft 372 kts 287°
2026-04-21 15:07 -34.92952 -58.09438 20734 ft 371 kts 287°
2026-04-21 15:07 -34.92334 -58.12039 20519 ft 370 kts 287°
2026-04-21 15:07 -34.91705 -58.14690 20300 ft 370 kts 287°
2026-04-21 15:07 -34.91176 -58.16917 20108 ft 369 kts 287°
2026-04-21 15:08 -34.90559 -58.19509 19856 ft 369 kts 287°
2026-04-21 15:08 -34.89941 -58.22097 19578 ft 368 kts 288°
2026-04-21 15:08 -34.89317 -58.24719 19220 ft 366 kts 287°
2026-04-21 15:08 -34.88695 -58.27322 18805 ft 364 kts 287°
2026-04-21 15:09 -34.88067 -58.29952 18356 ft 361 kts 287°
2026-04-21 15:09 -34.87424 -58.32640 17880 ft 359 kts 287°
2026-04-21 15:09 -34.86819 -58.35164 17420 ft 357 kts 287°
2026-04-21 15:09 -34.86200 -58.37752 16945 ft 356 kts 287°
2026-04-21 15:10 -34.85582 -58.40326 16473 ft 354 kts 288°
2026-04-21 15:10 -34.84971 -58.42872 16012 ft 353 kts 288°
2026-04-21 15:10 -34.84306 -58.45640 15521 ft 351 kts 288°
2026-04-21 15:10 -34.83662 -58.48319 15049 ft 350 kts 288°
2026-04-21 15:11 -34.83275 -58.49917 14763 ft 349 kts 289°
2026-04-21 15:11 -34.82434 -58.52361 14287 ft 346 kts 300°
2026-04-21 15:11 -34.80564 -58.55309 13634 ft 344 kts 316°
2026-04-21 15:11 -34.78948 -58.56992 13206 ft 343 kts 320°
2026-04-21 15:12 -34.77206 -58.58688 12724 ft 343 kts 321°
2026-04-21 15:12 -34.76086 -58.59769 12405 ft 343 kts 321°
2026-04-21 15:12 -34.73745 -58.62032 11734 ft 343 kts 321°
2026-04-21 15:12 -34.71953 -58.63772 11219 ft 343 kts 321°
2026-04-21 15:13 -34.70245 -58.65434 10886 ft 337 kts 321°
2026-04-21 15:13 -34.68632 -58.67007 10694 ft 327 kts 321°
2026-04-21 15:13 -34.67067 -58.68532 10545 ft 308 kts 321°
2026-04-21 15:13 -34.65616 -58.69948 10392 ft 288 kts 321°
2026-04-21 15:14 -34.64210 -58.71320 10251 ft 270 kts 321°
2026-04-21 15:14 -34.62933 -58.72565 10128 ft 261 kts 321°
2026-04-21 15:14 -34.61663 -58.73801 10012 ft 255 kts 321°
2026-04-21 15:14 -34.60411 -58.75021 9707 ft 257 kts 321°
2026-04-21 15:15 -34.59090 -58.76308 9360 ft 259 kts 321°
2026-04-21 15:15 -34.57693 -58.77665 9011 ft 260 kts 322°
2026-04-21 15:15 -34.56121 -58.78700 8642 ft 263 kts 343°
2026-04-21 15:15 -34.54351 -58.78891 8289 ft 267 kts
2026-04-21 15:16 -34.52608 -58.78676 7943 ft 269 kts
2026-04-21 15:16 -34.50943 -58.78457 7619 ft 270 kts
2026-04-21 15:16 -34.49181 -58.78231 7287 ft 271 kts
2026-04-21 15:16 -34.48014 -58.78085 7070 ft 271 kts
2026-04-21 15:17 -34.45612 -58.77792 6621 ft 271 kts
2026-04-21 15:17 -34.43996 -58.77598 6321 ft 271 kts
2026-04-21 15:17 -34.42334 -58.77399 6013 ft 271 kts
2026-04-21 15:17 -34.40612 -58.77194 5698 ft 270 kts
2026-04-21 15:18 -34.38792 -58.76962 5350 ft 270 kts
2026-04-21 15:18 -34.37185 -58.76196 5018 ft 273 kts 37°
2026-04-21 15:18 -34.36200 -58.74584 4958 ft 267 kts 69°
2026-04-21 15:18 -34.36008 -58.72617 4804 ft 262 kts 97°
2026-04-21 15:19 -34.36639 -58.70715 4586 ft 253 kts 127°
2026-04-21 15:19 -34.37837 -58.69226 4390 ft 248 kts 136°
2026-04-21 15:19 -34.39044 -58.67862 4182 ft 245 kts 135°
2026-04-21 15:19 -34.40247 -58.66463 3971 ft 242 kts 134°
2026-04-21 15:20 -34.41380 -58.65100 3772 ft 240 kts 133°
2026-04-21 15:20 -34.42501 -58.63722 3574 ft 237 kts 133°
2026-04-21 15:20 -34.43681 -58.62473 3390 ft 235 kts 138°
2026-04-21 15:20 -34.44596 -58.61449 3259 ft 231 kts 132°
2026-04-21 15:21 -34.45547 -58.60099 3109 ft 226 kts 126°
2026-04-21 15:21 -34.46394 -58.58704 2997 ft 221 kts 123°
2026-04-21 15:21 -34.47176 -58.57321 2818 ft 219 kts 121°
2026-04-21 15:21 -34.47979 -58.55863 2552 ft 222 kts 122°
2026-04-21 15:22 -34.48774 -58.54420 2269 ft 213 kts 121°
2026-04-21 15:22 -34.49510 -58.53094 2036 ft 197 kts 122°
2026-04-21 15:22 -34.50190 -58.51876 1873 ft 177 kts 121°
2026-04-21 15:22 -34.50812 -58.50757 1626 ft 164 kts 121°
2026-04-21 15:23 -34.51405 -58.49697 1352 ft 155 kts 122°
2026-04-21 15:23 -34.51944 -58.48721 1109 ft 147 kts 122°
2026-04-21 15:23 -34.52448 -58.47819 924 ft 136 kts 121°
2026-04-21 15:23 -34.52912 -58.46964 770 ft 132 kts 121°
2026-04-21 15:24 -34.53393 -58.46104 659 ft 132 kts 123°
2026-04-21 15:24 -34.53882 -58.45259 534 ft 132 kts 122°
2026-04-21 15:24 -34.54355 -58.44402 383 ft 131 kts 121°
2026-04-21 15:24 -34.54839 -58.43521 239 ft 130 kts 123°
2026-04-21 15:25 -34.55320 -58.42658 68 ft 129 kts 123°
2026-04-21 15:25 -34.55752 -58.41878 25 ft 88 kts 124°
2026-04-21 15:25 -34.55960 -58.41508 31 ft 40 kts 124°
2026-04-21 15:25 -34.56004 -58.41348 32 ft 15 kts 33°
2026-04-21 15:26 -34.55941 -58.41300 30 ft 6 kts 18°
2026-04-21 15:26 -34.55934 -58.41299 30 ft 0 kts
2026-04-21 15:26 -34.55933 -58.41299 30 ft 0 kts 360°
2026-04-21 15:26 -34.55921 -58.41304 30 ft 3 kts 341°
2026-04-21 15:27 -34.55888 -58.41295 29 ft 5 kts 26°
2026-04-21 15:27 -34.55853 -58.41276 29 ft 6 kts
2026-04-21 15:27 -34.55822 -58.41309 28 ft 0 kts 304°
2026-04-21 15:28 -34.55819 -58.41314 28 ft 1 kts 304°
2026-04-21 15:28 -34.55810 -58.41330 28 ft 4 kts 304°
2026-04-21 15:28 -34.55791 -58.41364 28 ft 5 kts 304°
2026-04-21 15:29 -34.55767 -58.41407 28 ft 7 kts 304°
2026-04-21 15:29 -34.55774 -58.41427 28 ft 2 kts 197°
2026-04-21 15:29 -34.55795 -58.41440 28 ft 4 kts 207°
2026-04-21 15:29 -34.55801 -58.41444 28 ft 0 kts 208°